FW0292 Weather Reports


time (UTC)temp
F
wind
direction
speed
knots
gust
knots
rain 1hr
in
rain 24hr
in
rain mn
in
humidity
%
barometer
mb
20260506011502 53 351 5.2 10.4 0.00 0.00 0.00 73 1012.9
20260506011002 53 349 5.2 10.4 0.00 0.00 0.00 73 1012.9
20260506010502 53 350 5.2 12.2 0.00 0.00 0.00 73 1012.9
20260506010023 53 349 6.1 12.2 0.00 0.00 0.00 73 1012.9
20260506005502 53 348 6.1 13.0 0.00 0.00 0.00 73 1013.0
20260506005002 53 350 6.1 13.0 0.00 0.00 0.00 73 1012.9
20260506004523 53 351 5.2 12.2 0.00 0.00 0.00 73 1012.9
20260506004002 53 352 5.2 11.3 0.00 0.00 0.00 73 1012.9
20260506003523 53 352 5.2 9.6 0.00 0.00 0.00 73 1012.9
20260506003002 53 349 5.2 9.6 0.00 0.00 0.00 73 1013.0
20260506002502 53 347 4.3 8.7 0.00 0.00 0.00 73 1013.1
20260506002001 53 349 4.3 9.6 0.00 0.00 0.00 73 1013.0
20260506001502 53 347 4.3 9.6 0.00 0.00 0.00 73 1013.0
20260506001002 53 345 4.3 7.8 0.00 0.00 0.00 73 1013.0
20260506000502 53 346 4.3 7.8 0.00 0.00 0.00 73 1013.0
20260506000002 53 347 4.3 10.4 0.00 0.00 0.00 73 1012.9
20260505235502 53 352 5.2 10.4 0.00 0.00 0.00 73 1013.0
20260505235002 53 352 6.1 10.4 0.00 0.00 0.00 72 1013.0
20260505234502 53 353 5.2 11.3 0.00 0.00 0.00 72 1013.0
20260505234002 53 353 5.2 11.3 0.00 0.00 0.00 72 1013.0
20260505233502 54 346 5.2 11.3 0.00 0.00 0.00 72 1013.1
20260505233023 54 343 5.2 11.3 0.00 0.00 0.00 72 1013.0
20260505232502 54 342 5.2 9.6 0.00 0.00 0.00 72 1013.2
20260505232002 54 344 5.2 10.4 0.00 0.00 0.00 72 1013.1
20260505231502 54 344 5.2 11.3 0.00 0.00 0.00 72 1013.2
20260505231002 54 343 5.2 11.3 0.00 0.00 0.00 72 1013.2
20260505230502 54 343 6.1 12.2 0.00 0.00 0.00 72 1013.2
20260505230002 54 344 5.2 12.2 0.00 0.00 0.00 72 1013.3
20260505225502 54 347 5.2 11.3 0.00 0.00 0.00 71 1013.3
20260505225023 54 347 6.1 11.3 0.00 0.00 0.00 72 1013.4
20260505224502 54 346 6.1 11.3 0.00 0.00 0.00 72 1013.4
20260505224002 54 349 5.2 11.3 0.00 0.00 0.00 71 1013.3
20260505223502 54 347 6.1 11.3 0.00 0.00 0.00 71 1013.3
20260505223002 54 345 6.1 13.9 0.00 0.00 0.00 71 1013.4
20260505222502 54 345 5.2 13.9 0.00 0.00 0.00 71 1013.4
20260505222002 54 345 6.1 12.2 0.00 0.00 0.00 71 1013.4
20260505221502 54 345 6.1 12.2 0.00 0.00 0.00 71 1013.4
20260505221002 54 344 6.1 10.4 0.00 0.00 0.00 71 1013.4
20260505220502 54 346 5.2 10.4 0.00 0.00 0.00 71 1013.4
20260505220002 54 345 6.1 10.4 0.00 0.00 0.00 71 1013.5
20260505215502 54 343 6.1 10.4 0.00 0.00 0.00 71 1013.5
20260505215002 54 344 6.1 9.6 0.00 0.00 0.00 71 1013.4
20260505214523 54 349 5.2 9.6 0.00 0.00 0.00 71 1013.4
20260505214002 54 349 5.2 10.4 0.00 0.00 0.00 71 1013.4
20260505213502 54 348 5.2 10.4 0.00 0.00 0.00 70 1013.5
20260505213023 54 346 5.2 10.4 0.00 0.00 0.00 70 1013.4
20260505212502 54 342 4.3 10.4 0.00 0.00 0.00 70 1013.5
20260505212023 55 345 5.2 12.2 0.00 0.00 0.00 70 1013.5
20260505211502 55 347 5.2 12.2 0.00 0.00 0.00 70 1013.4
20260505211002 55 344 5.2 9.6 0.00 0.00 0.00 70 1013.5
20260505210502 55 344 4.3 11.3 0.00 0.00 0.00 70 1013.5
20260505210002 55 343 4.3 11.3 0.00 0.00 0.00 70 1013.5
20260505205502 55 348 4.3 9.6 0.00 0.00 0.00 70 1013.5
20260505205002 55 349 4.3 9.6 0.00 0.00 0.00 69 1013.5
20260505204502 56 346 4.3 9.6 0.00 0.00 0.00 69 1013.4
20260505204002 56 344 5.2 11.3 0.00 0.00 0.00 69 1013.5
20260505203502 56 343 5.2 11.3 0.00 0.00 0.00 69 1013.4
20260505203002 56 342 4.3 9.6 0.00 0.00 0.00 69 1013.3
20260505202502 56 343 4.3 9.6 0.00 0.00 0.00 69 1013.4
20260505202002 56 344 5.2 9.6 0.00 0.00 0.00 69 1013.4
20260505201502 56 347 4.3 10.4 0.00 0.00 0.00 69 1013.3
20260505201002 57 348 4.3 10.4 0.00 0.00 0.00 68 1013.4
20260505200502 57 345 4.3 10.4 0.00 0.00 0.00 68 1013.4
20260505200002 57 343 4.3 8.7 0.00 0.00 0.00 67 1013.3
20260505195502 57 345 4.3 8.7 0.00 0.00 0.00 67 1013.2
20260505195002 58 344 5.2 10.4 0.00 0.00 0.00 67 1013.2
20260505194502 58 342 4.3 10.4 0.00 0.00 0.00 66 1013.1
20260505194002 58 342 4.3 8.7 0.00 0.00 0.00 66 1013.0
20260505193502 58 343 4.3 10.4 0.00 0.00 0.00 66 1013.0
20260505193002 58 343 4.3 10.4 0.00 0.00 0.00 65 1013.0
20260505192502 58 344 4.3 10.4 0.00 0.00 0.00 65 1012.9
20260505192023 59 348 4.3 10.4 0.00 0.00 0.00 65 1012.8
20260505191523 59 346 3.5 8.7 0.00 0.00 0.00 64 1012.8
20260505191002 59 344 3.5 8.7 0.00 0.00 0.00 64 1012.8
20260505190502 59 342 4.3 8.7 0.00 0.00 0.00 64 1012.8
20260505190002 59 342 3.5 8.7 0.00 0.00 0.00 63 1012.8
20260505185502 59 343 3.5 9.6 0.00 0.00 0.00 63 1012.6
20260505185002 59 343 4.3 9.6 0.00 0.00 0.00 62 1012.5
20260505184502 60 341 3.5 8.7 0.00 0.00 0.00 62 1012.5
20260505184002 60 340 3.5 8.7 0.00 0.00 0.00 62 1012.6
20260505183502 60 342 3.5 10.4 0.00 0.00 0.00 62 1012.5
20260505183002 60 342 4.3 10.4 0.00 0.00 0.00 62 1012.5
20260505182523 60 344 4.3 9.6 0.00 0.00 0.00 62 1012.5
20260505182002 60 346 4.3 9.6 0.00 0.00 0.00 61 1012.5
20260505181502 60 344 4.3 9.6 0.00 0.00 0.00 61 1012.5
20260505181002 60 341 4.3 8.7 0.00 0.00 0.00 60 1012.5
20260505180502 61 339 4.3 9.6 0.00 0.00 0.00 60 1012.5
20260505180002 61 343 4.3 9.6 0.00 0.00 0.00 60 1012.4
20260505175502 61 346 4.3 9.6 0.00 0.00 0.00 60 1012.5
20260505175002 61 341 3.5 7.8 0.00 0.00 0.00 60 1012.5
20260505174502 61 341 3.5 8.7 0.00 0.00 0.00 60 1012.5
20260505174002 62 346 4.3 10.4 0.00 0.00 0.00 60 1012.5
20260505173502 62 346 5.2 10.4 0.00 0.00 0.00 60 1012.5
20260505173002 62 345 5.2 9.6 0.00 0.00 0.00 60 1012.6
20260505172502 62 345 5.2 9.6 0.00 0.00 0.00 60 1012.6
20260505172002 62 343 5.2 9.6 0.00 0.00 0.00 59 1012.8
20260505171502 62 344 4.3 8.7 0.00 0.00 0.00 58 1012.7
20260505171003 62 346 4.3 9.6 0.00 0.00 0.00 59 1012.8
20260505170502 63 341 4.3 9.6 0.00 0.00 0.00 58 1012.9
20260505170002 63 343 4.3 8.7 0.00 0.00 0.00 58 1012.8
20260505165502 63 351 4.3 9.6 0.00 0.00 0.00 58 1012.8
20260505165002 64 354 4.3 9.6 0.00 0.00 0.00 58 1012.8
20260505164502 64 355 3.5 8.7 0.00 0.00 0.00 58 1012.8
20260505164002 65 348 3.5 9.6 0.00 0.00 0.00 57 1012.7
20260505163502 65 339 4.3 9.6 0.00 0.00 0.00 56 1012.6
20260505163002 66 340 4.3 8.7 0.00 0.00 0.00 55 1012.7
20260505162523 66 344 4.3 8.7 0.00 0.00 0.00 54 1012.7
20260505162002 67 345 3.5 8.7 0.00 0.00 0.00 53 1012.7
20260505161523 68 350 4.3 9.6 0.00 0.00 0.00 51 1012.6
20260505161002 69 350 5.2 11.3 0.00 0.00 0.00 51 1012.8
20260505160502 70 342 6.1 11.3 0.00 0.00 0.00 51 1012.8
20260505153002 71 343 5.2 10.4 0.00 0.00 0.00 51 1012.9
20260505152502 71 339 5.2 13.0 0.00 0.00 0.00 53 1012.9
20260505152002 70 330 4.3 13.0 0.00 0.00 0.00 51 1013.0
20260505151502 70 328 4.3 10.4 0.00 0.00 0.00 52 1012.9
20260505151002 70 334 5.2 11.3 0.00 0.00 0.00 49 1012.9
20260505150502 70 335 6.1 12.2 0.00 0.00 0.00 50 1012.9
20260505140502 70 341 5.2 12.2 0.00 0.00 0.00 55 1013.2
20260505125002 70 343 5.2 11.3 0.00 0.00 0.00 56 1013.5
20260505124502 70 343 5.2 11.3 0.00 0.00 0.00 56 1013.5
20260505124002 70 342 5.2 11.3 0.00 0.00 0.00 56 1013.5
20260505123502 69 346 5.2 11.3 0.00 0.00 0.00 58 1013.5
20260505123002 69 346 5.2 11.3 0.00 0.00 0.00 57 1013.5
20260505122502 69 344 4.3 10.4 0.00 0.00 0.00 60 1013.5
20260505122023 68 341 5.2 10.4 0.00 0.00 0.00 61 1013.5
20260505121502 67 344 5.2 10.4 0.00 0.00 0.00 61 1013.6
20260505121002 67 354 4.3 10.4 0.00 0.00 0.00 63 1013.5
20260505120502 66 352 5.2 12.2 0.00 0.00 0.00 65 1013.6
20260505120002 65 346 5.2 12.2 0.00 0.00 0.00 63 1013.5
20260505115502 64 343 5.2 12.2 0.00 0.00 0.00 65 1013.6
20260505115002 64 349 5.2 12.2 0.00 0.00 0.00 66 1013.6
20260505114503 63 356 4.3 8.7 0.00 0.00 0.00 65 1013.6
20260505114002 63 350 5.2 11.3 0.00 0.00 0.00 64 1013.6
20260505113502 64 344 6.1 11.3 0.00 0.00 0.00 63 1013.6
20260505113003 64 340 5.2 10.4 0.00 0.00 0.00 63 1013.6
20260505112502 65 348 4.3 10.4 0.00 0.00 0.00 63 1013.6
20260505112002 65 348 4.3 10.4 0.00 0.00 0.00 63 1013.6
20260505111502 65 351 4.3 9.6 0.00 0.00 0.00 63 1013.7
20260505111003 66 4 3.5 8.7 0.00 0.00 0.00 65 1013.7
20260505110502 65 2 3.5 10.4 0.00 0.00 0.00 66 1013.7
20260505102002 62 348 5.2 10.4 0.00 0.00 0.00 70 1013.9
20260505101503 62 348 5.2 10.4 0.00 0.00 0.00 69 1013.9
20260505101002 62 353 4.3 9.6 0.00 0.00 0.00 70 1014.0
20260505100502 61 3 3.5 8.7 0.00 0.00 0.00 71 1014.0
20260505100003 60 5 3.5 8.7 0.00 0.00 0.00 71 1014.1
20260505095502 60 13 3.5 9.6 0.00 0.00 0.00 72 1014.1
20260505095023 60 8 3.5 9.6 0.00 0.00 0.00 71 1014.0
20260505094502 60 359 3.5 9.6 0.00 0.00 0.00 71 1014.1
20260505094002 60 2 4.3 10.4 0.00 0.00 0.00 72 1014.1
20260505093502 60 3 4.3 10.4 0.00 0.00 0.00 72 1014.1
20260505093002 60 358 4.3 9.6 0.00 0.00 0.00 72 1014.2
20260505092523 60 354 3.5 9.6 0.00 0.00 0.00 73 1014.2
20260505092002 60 355 4.3 10.4 0.00 0.00 0.00 73 1014.3
20260505091502 59 348 5.2 10.4 0.00 0.00 0.00 73 1014.3
20260505091002 60 349 4.3 10.4 0.00 0.00 0.00 73 1014.3
20260505090502 60 355 3.5 9.6 0.00 0.00 0.00 73 1014.1
20260505090002 60 346 5.2 11.3 0.00 0.00 0.00 74 1014.1
20260505085502 59 345 5.2 11.3 0.00 0.00 0.00 73 1014.2
20260505085002 60 349 4.3 9.6 0.00 0.00 0.00 74 1014.3
20260505084503 59 2 4.3 9.6 0.00 0.00 0.00 75 1014.4
20260505084002 59 9 4.3 8.7 0.00 0.00 0.00 74 1014.5
20260505083503 59 2 4.3 8.7 0.00 0.00 0.00 76 1014.5
20260505083002 58 360 4.3 10.4 0.00 0.00 0.00 77 1014.5
20260505082502 58 358 4.3 10.4 0.00 0.00 0.00 77 1014.6
20260505082003 57 351 3.5 9.6 0.00 0.00 0.00 77 1014.7
20260505081502 57 334 4.3 9.6 0.00 0.00 0.00 78 1014.7
20260505081002 56 340 4.3 10.4 0.00 0.00 0.00 78 1014.5
20260505080502 56 341 4.3 10.4 0.00 0.00 0.00 78 1014.6
20260505080002 56 347 4.3 10.4 0.00 0.00 0.00 78 1014.6
20260505075502 55 357 4.3 11.3 0.00 0.00 0.00 79 1014.6
20260505075002 55 352 4.3 11.3 0.00 0.00 0.00 78 1014.5
20260505074502 55 351 5.2 10.4 0.00 0.00 0.00 79 1014.4
20260505074002 55 350 4.3 10.4 0.00 0.00 0.00 79 1014.5
20260505073502 55 349 3.5 9.6 0.00 0.00 0.00 80 1014.5
20260505073002 55 346 3.5 8.7 0.00 0.00 0.00 80 1014.4
20260505072524 55 351 2.6 7.8 0.00 0.00 0.00 81 1014.3
20260505072002 54 354 3.5 9.6 0.00 0.00 0.00 81 1014.4
20260505071502 54 351 3.5 7.8 0.00 0.00 0.00 81 1014.2
20260505071002 54 349 2.6 7.8 0.00 0.00 0.00 81 1014.1
20260505070502 54 354 2.6 8.7 0.00 0.00 0.00 81 1014.2
20260505070023 54 352 2.6 8.7 0.00 0.00 0.00 82 1014.2
20260505065502 54 346 2.6 7.8 0.00 0.00 0.00 82 1014.2
20260505065002 54 344 1.7 5.2 0.00 0.00 0.00 82 1014.3
20260505064502 54 337 1.7 5.2 0.00 0.00 0.00 82 1014.3
20260505064002 54 328 1.7 5.2 0.00 0.00 0.00 82 1014.4
20260505063524 54 346 0.9 4.3 0.00 0.00 0.00 83 1014.5
20260505063003 54 16 0.9 4.3 0.00 0.00 0.00 83 1014.2
20260505062502 53 8 0.9 3.5 0.00 0.00 0.00 83 1014.3
20260505062002 53 7 0.9 3.5 0.00 0.00 0.00 83 1014.3
20260505061524 53 354 0.0 2.6 0.00 0.00 0.00 83 1014.3
20260505061002 53 310 0.0 1.7 0.00 0.00 0.00 83 1014.3
20260505060502 53 331 0.9 7.0 0.00 0.00 0.00 83 1014.2
20260505060002 53 346 1.7 7.0 0.00 0.00 0.00 83 1014.2
20260505055523 53 4 1.7 5.2 0.00 0.00 0.00 83 1014.2
20260505055002 53 10 0.9 5.2 0.00 0.00 0.00 83 1014.2
20260505054523 53 350 0.9 7.0 0.00 0.00 0.00 83 1014.1
20260505054003 53 3 1.7 7.0 0.00 0.00 0.00 83 1014.2
20260505053503 53 15 1.7 4.3 0.00 0.00 0.00 83 1014.1
20260505053003 53 4 1.7 4.3 0.00 0.00 0.00 83 1014.1
20260505052503 53 350 1.7 7.0 0.00 0.00 0.00 83 1013.9
20260505052002 53 356 2.6 7.0 0.00 0.00 0.00 83 1013.9
20260505051523 53 360 2.6 7.0 0.00 0.00 0.00 83 1013.9
20260505051024 54 349 1.7 6.1 0.00 0.00 0.00 83 1013.9
20260505050502 54 349 1.7 7.0 0.00 0.00 0.00 83 1013.9
20260505041523 55 355 1.7 4.3 0.00 0.00 0.00 82 1013.9
20260505041002 55 7 1.7 7.0 0.00 0.00 0.00 82 1013.9
20260505040523 55 19 1.7 7.0 0.00 0.00 0.00 82 1014.0
20260505040023 55 16 1.7 5.2 0.00 0.00 0.00 82 1014.0
20260505035502 55 14 1.7 5.2 0.00 0.00 0.00 82 1013.9
20260505035002 55 11 1.7 4.3 0.00 0.00 0.00 82 1014.0
20260505034523 55 6 1.7 5.2 0.00 0.00 0.00 82 1013.9
20260505034002 55 8 2.6 7.0 0.00 0.00 0.00 82 1014.1
20260505033502 55 9 2.6 7.0 0.00 0.00 0.00 81 1014.1
20260505033002 55 8 1.7 7.0 0.00 0.00 0.00 81 1014.1
20260505032502 55 7 1.7 7.0 0.00 0.00 0.00 81 1014.2
20260505032003 55 3 0.9 7.0 0.00 0.00 0.00 81 1014.2
20260505031503 55 5 0.9 3.5 0.00 0.00 0.00 81 1014.3
20260505031003 55 17 0.9 3.5 0.00 0.00 0.00 81 1014.2
20260505030503 55 11 1.7 4.3 0.00 0.00 0.00 81 1014.2
20260505030003 55 11 1.7 4.3 0.00 0.00 0.00 81 1014.2
20260505025503 55 4 1.7 5.2 0.00 0.00 0.00 81 1014.1
20260505025003 55 348 1.7 5.2 0.00 0.00 0.00 81 1014.1
20260505024503 55 337 0.9 2.6 0.00 0.00 0.00 81 1014.1
20260505024003 55 352 0.9 3.5 0.00 0.00 0.00 81 1014.1
20260505023502 55 359 0.9 3.5 0.00 0.00 0.00 81 1014.1
20260505023023 55 3 1.7 7.0 0.00 0.00 0.00 81 1014.2
20260505022502 55 6 1.7 7.0 0.00 0.00 0.00 81 1014.1
20260505022002 55 9 1.7 7.0 0.00 0.00 0.00 81 1014.2
20260505021503 55 6 2.6 7.0 0.00 0.00 0.00 81 1014.2
20260505021003 55 2 2.6 7.0 0.00 0.00 0.00 82 1014.3
20260505020503 55 359 2.6 6.1 0.00 0.00 0.00 82 1014.2
20260505020003 55 1 1.7 5.2 0.00 0.00 0.00 82 1014.3
20260505015503 55 360 2.6 8.7 0.00 0.00 0.00 82 1014.3
20260505015024 55 2 2.6 8.7 0.00 0.00 0.00 82 1014.2
20260505014524 55 5 2.6 7.0 0.00 0.00 0.00 82 1014.2
20260505014003 55 4 2.6 7.0 0.00 0.00 0.00 82 1014.3
20260505013502 55 357 2.6 7.0 0.00 0.00 0.00 82 1014.3
20260505013002 55 354 2.6 7.0 0.00 0.00 0.00 82 1014.4
20260505012502 55 1 2.6 5.2 0.00 0.00 0.00 82 1014.5
20260505012002 55 6 2.6 9.6 0.00 0.00 0.00 82 1014.6